Regional Weather Roundup
Issued by NWS Lake Charles, LA

Home | Current Version | Previous Version | Text Only | Print | Product List | Glossary On
Versions: 1 2 3 4 5 6 7 8 9 10 11 12 13 14 15 16 17 18 19 20 21 22 23 24 25 26 27 28 29 30 31 32 33 34 35 36 37 38 39 40 41 42 43 44 45 46 47 48 49 50
494
ASUS44 KLCH 101510
RWRLCH
REGIONAL WEATHER ROUNDUP
NATIONAL WEATHER SERVICE LAKE CHARLES LA
900 AM CST SAT DEC 10 2016

Note: "fair" indicates few or no clouds below 12,000 feet with no
significant weather and/or obstructions to visibility.


ACROSS SOUTHEAST TEXAS

CITY           SKY/WX    TMP DP  RH WIND       PRES   REMARKS
BEAUMONT       SUNNY     42  29  59 E9        30.53R
BEAUMONT CITY  FAIR      42  27  55 E8        30.54S
ORANGE         SUNNY     40  26  58 E10       30.56R
JASPER         SUNNY     39  29  69 E7        30.55S
$$

ACROSS CENTRAL LOUISIANA

CITY           SKY/WX    TMP DP  RH WIND       PRES   REMARKS
LEESVILLE      SUNNY     37  27  66 E8        30.54F
FULLERTON      FAIR      38  26  62 VRB6      30.51F
ALEXANDRIA INT SUNNY     36  28  73 SE9       30.55F WCI  29
ESLER FIELD    SUNNY     37  28  70 E7        30.56S
DERIDDER       FAIR      37  25  61 E6        30.56F
OAKDALE        SUNNY     38  28  69 E5        30.57R
OPELOUSAS      FAIR      38  26  60 E8        30.55S
$$

ACROSS SOUTHWEST AND SOUTH CENTRAL LOUISIANA

CITY           SKY/WX    TMP DP  RH WIND       PRES   REMARKS
SULPHUR        SUNNY     42  26  54 NE12      30.55R
LAKE CHARLES   SUNNY     40  29  64 E12       30.55R
CHENNAULT INT  NOT AVBL
CAMERON PHI    SUNNY     43  28  56 E13       30.52R
DEQUINCY       FAIR      37  28  68 E3        30.56R
JENNINGS       FAIR      39  25  56 E8        30.56R
LAFAYETTE      SUNNY     41  25  53 E8        30.54S
NEW IBERIA     SUNNY     41  25  53 NE12      30.54S
ABBEVILLE      FAIR      39  28  65 NE6       30.54S
PATTERSON      SUNNY    N/A N/A N/A E9        30.53S
SALT POINT     NOT AVBL
$$

SELECTED SITES ACROSS THE REGION

CITY           SKY/WX    TMP DP  RH WIND       PRES   REMARKS
HOUSTON BUSH   PTSUNNY   41  29  62 E9        30.51R
HOUSTON HOBBY  MOSUNNY   46  34  62 NE9       30.49S
GALVESTON      PTSUNNY   50  44  80 NE12      30.49S
COLLEGE STAT   CLOUDY    41  29  62 E7        30.49R
CONROE         CLOUDY    38  28  67 E7        30.51R
HUNTSVILLE     CLOUDY    40  25  55 E5        30.50R
LUFKIN         CLOUDY    36  30  79 SE9       30.52R WCI  29
SHREVEPORT     CLOUDY    37  26  64 SE7       30.56R
MONROE         CLOUDY    34  27  75 E8        30.60S WCI  27
NATCHEZ MS     SUNNY     36  23  60 E7        30.57R WCI  30
BATON ROUGE    SUNNY     40  23  50 NE12      30.56R
N.O. INTL ARPT SUNNY     44  28  53 E14       30.55R
SLIDELL        SUNNY     40  24  53 NE7       30.56R
$$

MARINE REPORTS

STATION/POSITION TIME  SKY/WX   TEMP    WIND        PRES    VSBY
                                AIR SEA DIR/SP/G
                 (UTC)          (F)     (DEG/KT/KT) (MB)    (MI)
BUOY 30 S HIGH I 1450            54 64   70/ 16/ 17 1032.1R
WVE H/P(F/S)=  3/ 5

SEA RIM ST PARK  1500            42      70/  8/ 11 1034.2R
PORT ARTHUR      1436               54   80/  7/ 12 1033.9R
SABINE PASS N    1436            42 54   70/ 12/ 14 1034.7R
TEXAS POINT      NOT AVBL
CALCASIEU PASS   1436            41 50   70/  9/ 13   N/A
LK CHARLES BEACH 1436            37 53              1035.0R
MARSH ISLAND     1400            42                   N/A
FRESH WATER LOCK 1436            42 50   60/ 10/ 15 1034.1R
AMERADA PASS     1436            43 53   60/  7/ 12 1033.1S
$$




USA.gov is the U.S. government's official web portal to all federal, state and local government web resources and services.